This is the latest recevied weather packets stored in our database for station/object KM5R. If no packets are shown the sender has not sent any weather packets the latest 10 day(s).
| Time | Temp. | Humidity | Pressure | Rain* | Wind** | Luminosity | Snow |
|---|---|---|---|---|---|---|---|
| 1778009912 | 30.56° C | 56% | 1007.9 hPa | 0 mm | - | 619 W/m² | - |
| 1778009610 | 31.11° C | 56% | 1007.7 hPa | 0 mm | - | 510 W/m² | - |
| 1778009307 | 31.11° C | 55% | 1007.8 hPa | 0 mm | - | 714 W/m² | - |
| 1778009006 | 31.11° C | 56% | 1008 hPa | 0 mm | - | 783 W/m² | - |
| 1778008703 | 30.56° C | 55% | 1007.9 hPa | 0 mm | - | 742 W/m² | - |
| 1778008401 | 30.56° C | 56% | 1007.9 hPa | 0 mm | - | 781 W/m² | - |
| 1778008098 | 30.56° C | 57% | 1008.1 hPa | 0 mm | - | 537 W/m² | - |
| 1778007793 | 30.56° C | 57% | 1008.2 hPa | 0 mm | - | 762 W/m² | - |
| 1778007489 | 30.56° C | 56% | 1008.4 hPa | 0 mm | - | 642 W/m² | - |
| 1778006882 | 30° C | 58% | 1008.5 hPa | 0 mm | - | 824 W/m² | - |
| 1778006276 | 30° C | 56% | 1008.6 hPa | 0 mm | - | 749 W/m² | - |
| 1778005973 | 30° C | 56% | 1008.3 hPa | 0 mm | - | 659 W/m² | - |
| 1778005670 | 29.44° C | 57% | 1008.7 hPa | 0 mm | - | 697 W/m² | - |
| 1778004761 | 29.44° C | 61% | 1008.4 hPa | 0 mm | - | 654 W/m² | - |
| 1778004457 | 29.44° C | 59% | 1008.7 hPa | 0 mm | - | 627 W/m² | - |
| 1778003850 | 28.89° C | 61% | 1008.9 hPa | 0 mm | - | 633 W/m² | - |
| 1778003243 | 28.89° C | 62% | 1009 hPa | 0 mm | - | 540 W/m² | - |
| 1778002636 | 28.33° C | 63% | 1009 hPa | 0 mm | - | 464 W/m² | - |
| 1778002333 | 28.33° C | 62% | 1009 hPa | 0 mm | - | 535 W/m² | - |
| 1778002030 | 27.78° C | 65% | 1008.8 hPa | 0 mm | - | 723 W/m² | - |
| 1778001727 | 27.78° C | 66% | 1008.9 hPa | 0 mm | - | 494 W/m² | - |
| 1778001426 | 27.78° C | 65% | 1009 hPa | 0 mm | - | 463 W/m² | - |
| 1778000821 | 27.22° C | 65% | 1009.2 hPa | 0 mm | - | 464 W/m² | - |
| 1777999005 | 26.67° C | 68% | 1009.4 hPa | 0 mm | - | 386 W/m² | - |
| 1777998400 | 26.67° C | 68% | 1009.3 hPa | 0 mm | - | 528 W/m² | - |
* Rain latest hour (hover to see other rain measurements)
** Current wind speed in m/s (hover to see current wind gust speed)